| time (UTC) | temp C | wind direction | speed KPH | gust KPH | rain 1hr cm | rain 24hr cm | rain mn cm | humidity % | barometer mb |
| 20260503231544 | 18 | 162 | 0.0 | 4.8 | 0.00 | 0.00 | 0.00 | 34 | 1015.5 |
| 20260503230044 | 20 | 211 | 1.6 | 4.8 | 0.00 | 0.00 | 0.00 | 31 | 1015.4 |
| 20260503224542 | 20 | 154 | 1.6 | 8.0 | 0.00 | 0.00 | 0.00 | 30 | 1015.5 |
| 20260503223049 | 20 | 216 | 0.0 | 11.3 | 0.00 | 0.00 | 0.00 | 30 | 1015.6 |
| 20260503221546 | 21 | 0 | 1.6 | 6.4 | 0.00 | 0.00 | 0.00 | 31 | 1015.7 |
| 20260503220105 | 20 | 298 | 1.6 | 11.3 | 0.00 | 0.00 | 0.00 | 30 | 1015.9 |
| 20260503214546 | 21 | 302 | 0.0 | 11.3 | 0.00 | 0.00 | 0.00 | 29 | 1015.9 |
| 20260503213049 | 21 | 313 | 0.0 | 6.4 | 0.00 | 0.00 | 0.00 | 31 | 1016.0 |
| 20260503211558 | 21 | 244 | 1.6 | 9.7 | 0.00 | 0.00 | 0.00 | 30 | 1016.1 |
| 20260503210052 | 21 | 277 | 1.6 | 6.4 | 0.00 | 0.00 | 0.00 | 29 | 1016.2 |
| 20260503204553 | 20 | 0 | 3.2 | 8.0 | 0.00 | 0.00 | 0.00 | 30 | 1016.3 |
| 20260503203050 | 20 | 295 | 1.6 | 16.1 | 0.00 | 0.00 | 0.00 | 30 | 1016.8 |
| 20260503201547 | 20 | 202 | 1.6 | 6.4 | 0.00 | 0.00 | 0.00 | 30 | 1016.7 |
| 20260503200050 | 20 | 253 | 3.2 | 9.7 | 0.00 | 0.00 | 0.00 | 30 | 1017.2 |
| 20260503194550 | 20 | 103 | 0.0 | 12.9 | 0.00 | 0.00 | 0.00 | 32 | 1017.2 |
| 20260503193050 | 20 | 57 | 1.6 | 6.4 | 0.00 | 0.00 | 0.00 | 32 | 1017.5 |
| 20260503191548 | 20 | 0 | 0.0 | 6.4 | 0.00 | 0.00 | 0.00 | 29 | 1017.8 |
| 20260503190049 | 19 | 144 | 3.2 | 9.7 | 0.00 | 0.00 | 0.00 | 28 | 1018.0 |
| 20260503184545 | 18 | 203 | 6.4 | 17.7 | 0.00 | 0.00 | 0.00 | 29 | 1018.2 |
| 20260503183043 | 18 | 102 | 6.4 | 14.5 | 0.00 | 0.00 | 0.00 | 29 | 1018.3 |
| 20260503181617 | 18 | 221 | 3.2 | 12.9 | 0.00 | 0.00 | 0.00 | 29 | 1018.4 |
| 20260503180100 | 18 | 199 | 1.6 | 11.3 | 0.00 | 0.00 | 0.00 | 31 | 1018.5 |
| 20260503174555 | 18 | 30 | 3.2 | 9.7 | 0.00 | 0.00 | 0.00 | 33 | 1018.9 |
| 20260503173056 | 18 | 240 | 3.2 | 14.5 | 0.00 | 0.00 | 0.00 | 34 | 1019.2 |
| 20260503171551 | 17 | 200 | 1.6 | 12.9 | 0.00 | 0.00 | 0.00 | 33 | 1019.3 |
| 20260503120105 | 6 | 0 | 0.0 | 1.6 | 0.00 | 0.00 | 0.00 | 80 | 1019.7 |
| 20260503100104 | 2 | 0 | 0.0 | 0.0 | 0.00 | 0.00 | 0.00 | 91 | 1018.0 |
| 20260503081558 | 2 | 0 | 0.0 | 0.0 | 0.00 | 0.00 | 0.00 | 93 | 1017.2 |
| 20260503071549 | 3 | 0 | 0.0 | 1.6 | 0.00 | 0.00 | 0.00 | 93 | 1016.4 |
| 20260503060109 | 3 | 0 | 0.0 | 0.0 | 0.00 | 0.00 | 0.00 | 92 | 1016.1 |
| 20260503054552 | 3 | 0 | 0.0 | 0.0 | 0.00 | 0.00 | 0.00 | 92 | 1016.1 |
| 20260503053048 | 3 | 0 | 0.0 | 0.0 | 0.00 | 0.00 | 0.00 | 91 | 1016.2 |
| 20260503051551 | 3 | 0 | 0.0 | 0.0 | 0.00 | 0.00 | 0.00 | 91 | 1016.1 |
| 20260503050046 | 4 | 0 | 0.0 | 0.0 | 0.00 | 0.00 | 0.00 | 91 | 1016.0 |
| 20260503044611 | 4 | 0 | 0.0 | 0.0 | 0.00 | 0.00 | 0.00 | 90 | 1016.0 |
| 20260503043050 | 5 | 0 | 0.0 | 0.0 | 0.00 | 0.00 | 0.00 | 90 | 1015.9 |
| 20260503041554 | 5 | 0 | 0.0 | 0.0 | 0.00 | 0.00 | 0.00 | 89 | 1015.8 |
| 20260503040049 | 5 | 0 | 0.0 | 0.0 | 0.00 | 0.00 | 0.00 | 88 | 1015.7 |
| 20260503034548 | 5 | 0 | 0.0 | 0.0 | 0.00 | 0.00 | 0.00 | 87 | 1015.5 |
| 20260503033046 | 6 | 0 | 0.0 | 0.0 | 0.00 | 0.00 | 0.00 | 86 | 1015.4 |
| 20260503031544 | 6 | 0 | 0.0 | 0.0 | 0.00 | 0.00 | 0.00 | 86 | 1015.3 |
| 20260503030105 | 6 | 0 | 0.0 | 0.0 | 0.00 | 0.00 | 0.00 | 84 | 1015.2 |
| 20260503024541 | 7 | 0 | 0.0 | 1.6 | 0.00 | 0.00 | 0.00 | 83 | 1015.2 |
| 20260503023049 | 7 | 0 | 0.0 | 1.6 | 0.00 | 0.00 | 0.00 | 82 | 1015.1 |
| 20260503021547 | 7 | 0 | 0.0 | 0.0 | 0.00 | 0.00 | 0.00 | 79 | 1014.9 |
| 20260503020049 | 7 | 0 | 0.0 | 1.6 | 0.00 | 0.00 | 0.00 | 78 | 1014.6 |
| 20260503014551 | 8 | 0 | 0.0 | 0.0 | 0.00 | 0.00 | 0.00 | 75 | 1014.3 |
| 20260503013057 | 8 | 0 | 0.0 | 0.0 | 0.00 | 0.00 | 0.00 | 73 | 1014.2 |
| 20260503011554 | 9 | 0 | 0.0 | 0.0 | 0.00 | 0.00 | 0.00 | 70 | 1014.1 |
| 20260503010048 | 10 | 0 | 0.0 | 0.0 | 0.00 | 0.00 | 0.00 | 66 | 1013.9 |
| 20260503004553 | 11 | 0 | 0.0 | 0.0 | 0.00 | 0.00 | 0.00 | 63 | 1013.6 |
| 20260503003049 | 12 | 0 | 0.0 | 0.0 | 0.00 | 0.00 | 0.00 | 61 | 1013.3 |
| 20260503001549 | 12 | 0 | 0.0 | 1.6 | 0.00 | 0.00 | 0.00 | 57 | 1012.8 |
| 20260503000048 | 12 | 0 | 0.0 | 0.0 | 0.00 | 0.00 | 0.00 | 53 | 1012.6 |
| 20260502234600 | 13 | 0 | 0.0 | 1.6 | 0.00 | 0.00 | 0.00 | 50 | 1012.4 |
| 20260502233050 | 14 | 0 | 0.0 | 3.2 | 0.00 | 0.00 | 0.00 | 48 | 1012.2 |